JCSAT-15

Last updated on Jan. 18, 2020, 4:38 a.m. UTC

1 41903U 16082A   20017.82534682 -.00000355  00000-0  00000+0 0  9995
2 41903   0.0162  44.3533 0001234 273.6632 205.8741  1.00267636 11290
UTC
Height (km)
Latitude
Longitude
Inclination
Orbital Period
UTC large
Height (km)
Speed (km/s)
/
Latitude / Longitude
Inclination (degrees)
Orbital Period (minutes)
Azimuth
Elevation
Range (km)
Doppler Factor
iOS Compass Heading
iOS Angle

Next 30 passes for location: Hong Kong

Rise time Rise Azimuth (degrees) Set time Set Azimuth (degrees) Duration Max altitude (degrees)

No matching passes for this satellites